| time (UTC) | temp F | wind direction | speed MPH | gust MPH | rain 1hr in | rain 24hr in | rain mn in | humidity % | barometer mb |
| 20260901191554 | 66 | 53 | 0.0 | 5.0 | 0.00 | 0.12 | 0.12 | 85 | 1015.8 |
| 20260901190106 | 66 | 175 | 1.0 | 6.0 | 0.00 | 0.12 | 0.12 | 87 | 1015.8 |
| 20260901184553 | 65 | 195 | 3.0 | 13.0 | 0.00 | 0.12 | 0.12 | 89 | 1015.6 |
| 20260901183053 | 65 | 187 | 1.0 | 5.0 | 0.00 | 0.12 | 0.12 | 92 | 1015.8 |
| 20260901181550 | 64 | 232 | 0.0 | 5.0 | 0.00 | 0.12 | 0.12 | 94 | 1016.0 |
| 20260901180049 | 64 | 76 | 1.0 | 7.0 | 0.00 | 0.12 | 0.12 | 94 | 1015.8 |
| 20260901174548 | 64 | 189 | 4.0 | 12.0 | 0.00 | 0.12 | 0.12 | 94 | 1016.1 |
| 20260901173047 | 63 | 149 | 3.0 | 9.0 | 0.00 | 0.12 | 0.12 | 94 | 1016.1 |
| 20260901171603 | 63 | 194 | 2.0 | 8.0 | 0.00 | 0.12 | 0.12 | 93 | 1016.2 |
| 20260901170048 | 64 | 227 | 3.0 | 11.0 | 0.00 | 0.12 | 0.12 | 93 | 1016.2 |
| 20260901164544 | 64 | 127 | 0.0 | 11.0 | 0.00 | 0.12 | 0.12 | 92 | 1016.0 |
| 20260901163038 | 66 | 137 | 3.0 | 9.0 | 0.00 | 0.12 | 0.12 | 91 | 1016.3 |
| 20260901161538 | 69 | 44 | 1.0 | 7.0 | 0.00 | 0.12 | 0.12 | 94 | 1016.3 |
| 20260901160038 | 69 | 135 | 1.0 | 3.0 | 0.00 | 0.12 | 0.12 | 94 | 1016.3 |
| 20260901154533 | 69 | 107 | 0.0 | 5.0 | 0.01 | 0.12 | 0.12 | 94 | 1016.3 |
| 20260901153033 | 68 | 139 | 1.0 | 4.0 | 0.04 | 0.12 | 0.12 | 94 | 1016.3 |
| 20260901151533 | 68 | 180 | 1.0 | 4.0 | 0.08 | 0.12 | 0.12 | 94 | 1016.4 |
| 20260901150032 | 68 | 188 | 0.0 | 2.0 | 0.10 | 0.12 | 0.12 | 94 | 1016.6 |
| 20260901144534 | 68 | 76 | 0.0 | 2.0 | 0.09 | 0.11 | 0.11 | 94 | 1016.6 |
| 20260901143033 | 68 | 156 | 1.0 | 3.0 | 0.07 | 0.08 | 0.08 | 93 | 1016.3 |
| 20260901141535 | 69 | 105 | 2.0 | 5.0 | 0.04 | 0.04 | 0.04 | 93 | 1016.3 |
| 20260901140026 | 69 | 175 | 1.0 | 3.0 | 0.02 | 0.02 | 0.02 | 93 | 1016.2 |
| 20260901134524 | 69 | 116 | 0.0 | 3.0 | 0.02 | 0.02 | 0.02 | 92 | 1016.2 |
| 20260901133024 | 69 | 61 | 0.0 | 4.0 | 0.01 | 0.01 | 0.01 | 92 | 1016.4 |
| 20260901131523 | 69 | 322 | 0.0 | 4.0 | 0.00 | 0.00 | 0.00 | 91 | 1016.6 |
| 20260901130022 | 69 | 139 | 2.0 | 5.0 | 0.00 | 0.00 | 0.00 | 90 | 1016.5 |
| 20260901124521 | 69 | 180 | 2.0 | 5.0 | 0.00 | 0.00 | 0.00 | 91 | 1016.3 |
| 20260901123024 | 70 | 173 | 1.0 | 6.0 | 0.00 | 0.00 | 0.00 | 91 | 1016.5 |
| 20260901121520 | 70 | 184 | 2.0 | 6.0 | 0.00 | 0.00 | 0.00 | 91 | 1016.4 |
| 20260901120019 | 70 | 237 | 2.0 | 4.0 | 0.00 | 0.00 | 0.00 | 89 | 1016.6 |
| 20260901114519 | 70 | 179 | 0.0 | 4.0 | 0.00 | 0.00 | 0.00 | 87 | 1016.7 |
| 20260901113019 | 69 | 143 | 1.0 | 3.0 | 0.00 | 0.00 | 0.00 | 87 | 1016.6 |
| 20260901111519 | 69 | 139 | 0.0 | 2.0 | 0.00 | 0.00 | 0.00 | 89 | 1016.6 |
| 20260901110018 | 70 | 342 | 0.0 | 1.0 | 0.00 | 0.00 | 0.00 | 90 | 1016.8 |
| 20260901104517 | 70 | 26 | 0.0 | 1.0 | 0.00 | 0.00 | 0.00 | 91 | 1016.6 |
| 20260901103016 | 70 | 153 | 0.0 | 2.0 | 0.00 | 0.00 | 0.00 | 91 | 1016.5 |
| 20260901101517 | 70 | 157 | 0.0 | 3.0 | 0.00 | 0.00 | 0.00 | 91 | 1016.5 |
| 20260901100014 | 70 | 178 | 0.0 | 1.0 | 0.00 | 0.00 | 0.00 | 91 | 1016.3 |
| 20260901094512 | 70 | 156 | 0.0 | 3.0 | 0.00 | 0.00 | 0.00 | 91 | 1016.2 |
| 20260901093009 | 70 | 192 | 0.0 | 3.0 | 0.00 | 0.00 | 0.00 | 91 | 1016.3 |
| 20260901091508 | 70 | 135 | 0.0 | 2.0 | 0.00 | 0.00 | 0.00 | 91 | 1016.5 |
| 20260901090006 | 70 | 164 | 1.0 | 2.0 | 0.00 | 0.00 | 0.00 | 90 | 1016.6 |
| 20260901084503 | 70 | 156 | 1.0 | 3.0 | 0.00 | 0.00 | 0.00 | 90 | 1016.6 |
| 20260901083002 | 70 | 167 | 0.0 | 2.0 | 0.00 | 0.00 | 0.00 | 90 | 1016.7 |
| 20260901081559 | 70 | 156 | 0.0 | 1.0 | 0.00 | 0.00 | 0.00 | 90 | 1016.9 |
| 20260901080058 | 69 | 144 | 0.0 | 0.0 | 0.00 | 0.00 | 0.00 | 90 | 1017.0 |
| 20260901074606 | 69 | 144 | 0.0 | 1.0 | 0.00 | 0.00 | 0.00 | 90 | 1016.9 |
| 20260901073054 | 69 | 151 | 0.0 | 1.0 | 0.00 | 0.00 | 0.00 | 89 | 1017.0 |
| 20260901071552 | 69 | 140 | 0.0 | 1.0 | 0.00 | 0.00 | 0.00 | 89 | 1016.9 |
| 20260901070048 | 69 | 135 | 0.0 | 1.0 | 0.00 | 0.00 | 0.00 | 89 | 1017.0 |
| 20260901064545 | 69 | 146 | 0.0 | 1.0 | 0.00 | 0.00 | 0.00 | 88 | 1017.2 |
| 20260901063044 | 69 | 137 | 0.0 | 1.0 | 0.00 | 0.00 | 0.00 | 88 | 1017.2 |
| 20260901061538 | 70 | 137 | 0.0 | 1.0 | 0.00 | 0.00 | 0.00 | 87 | 1017.5 |
| 20260901060037 | 70 | 147 | 0.0 | 1.0 | 0.00 | 0.00 | 0.00 | 86 | 1017.7 |
| 20260901054538 | 69 | 159 | 0.0 | 1.0 | 0.00 | 0.00 | 0.00 | 86 | 1017.7 |
| 20260901053035 | 69 | 150 | 0.0 | 1.0 | 0.00 | 0.00 | 0.00 | 86 | 1017.6 |
| 20260901051536 | 69 | 177 | 0.0 | 1.0 | 0.00 | 0.00 | 0.00 | 86 | 1017.8 |
| 20260901050033 | 69 | 178 | 0.0 | 1.0 | 0.00 | 0.00 | 0.00 | 86 | 1018.0 |
| 20260901044532 | 69 | 174 | 0.0 | 1.0 | 0.00 | 0.01 | 0.00 | 85 | 1018.1 |
| 20260901043031 | 69 | 239 | 0.0 | 1.0 | 0.00 | 0.01 | 0.00 | 85 | 1018.2 |
| 20260901041531 | 70 | 144 | 0.0 | 1.0 | 0.00 | 0.01 | 0.00 | 85 | 1018.3 |
| 20260901040027 | 70 | 180 | 0.0 | 1.0 | 0.00 | 0.01 | 0.00 | 84 | 1018.4 |
| 20260901034530 | 70 | 175 | 0.0 | 1.0 | 0.00 | 0.02 | 0.01 | 83 | 1018.3 |
| 20260901033027 | 70 | 155 | 0.0 | 2.0 | 0.00 | 0.02 | 0.01 | 82 | 1018.4 |
| 20260901031531 | 69 | 168 | 0.0 | 3.0 | 0.00 | 0.02 | 0.01 | 82 | 1018.4 |
| 20260901030025 | 69 | 151 | 0.0 | 2.0 | 0.00 | 0.02 | 0.01 | 82 | 1018.4 |
| 20260901024525 | 69 | 154 | 0.0 | 2.0 | 0.00 | 0.02 | 0.01 | 82 | 1018.3 |
| 20260901023025 | 69 | 206 | 1.0 | 3.0 | 0.00 | 0.02 | 0.01 | 82 | 1018.4 |
| 20260901021525 | 69 | 148 | 0.0 | 2.0 | 0.00 | 0.02 | 0.01 | 82 | 1018.4 |
| 20260901020024 | 69 | 236 | 0.0 | 2.0 | 0.00 | 0.02 | 0.01 | 81 | 1018.7 |
| 20260901014523 | 69 | 132 | 0.0 | 3.0 | 0.00 | 0.02 | 0.01 | 81 | 1018.7 |
| 20260901013036 | 69 | 183 | 0.0 | 2.0 | 0.00 | 0.02 | 0.01 | 81 | 1018.8 |
| 20260901011533 | 69 | 100 | 0.0 | 3.0 | 0.00 | 0.02 | 0.01 | 82 | 1018.9 |
| 20260901010023 | 69 | 215 | 0.0 | 3.0 | 0.00 | 0.02 | 0.01 | 81 | 1018.7 |
| 20260901004520 | 70 | 182 | 0.0 | 5.0 | 0.00 | 0.02 | 0.01 | 80 | 1018.6 |
| 20260901003022 | 70 | 174 | 0.0 | 5.0 | 0.00 | 0.02 | 0.01 | 79 | 1018.5 |
| 20260901001520 | 70 | 130 | 0.0 | 3.0 | 0.00 | 0.02 | 0.01 | 79 | 1018.5 |
| 20260901000025 | 70 | 138 | 0.0 | 2.0 | 0.00 | 0.02 | 0.01 | 78 | 1018.7 |
| 20260831234519 | 70 | 149 | 0.0 | 2.0 | 0.00 | 0.02 | 0.01 | 77 | 1018.8 |
| 20260831233018 | 70 | 170 | 1.0 | 4.0 | 0.00 | 0.02 | 0.01 | 76 | 1018.8 |
| 20260831231518 | 70 | 225 | 0.0 | 3.0 | 0.00 | 0.02 | 0.01 | 76 | 1018.9 |
| 20260831230019 | 70 | 188 | 1.0 | 4.0 | 0.00 | 0.02 | 0.01 | 75 | 1018.8 |
| 20260831224517 | 70 | 216 | 0.0 | 4.0 | 0.00 | 0.02 | 0.01 | 77 | 1019.0 |
| 20260831223017 | 70 | 146 | 2.0 | 6.0 | 0.00 | 0.02 | 0.01 | 76 | 1018.8 |
| 20260831221516 | 71 | 151 | 0.0 | 4.0 | 0.00 | 0.02 | 0.01 | 78 | 1019.0 |
| 20260831220015 | 71 | 194 | 2.0 | 6.0 | 0.00 | 0.02 | 0.01 | 74 | 1019.1 |
| 20260831214518 | 72 | 232 | 2.0 | 4.0 | 0.00 | 0.02 | 0.01 | 72 | 1019.1 |
| 20260831213016 | 72 | 168 | 2.0 | 5.0 | 0.00 | 0.02 | 0.01 | 69 | 1019.1 |
| 20260831211516 | 72 | 186 | 3.0 | 7.0 | 0.00 | 0.02 | 0.01 | 69 | 1019.2 |
| 20260831210013 | 73 | 189 | 3.0 | 7.0 | 0.00 | 0.02 | 0.01 | 68 | 1019.5 |
| 20260831204513 | 74 | 303 | 2.0 | 9.0 | 0.00 | 0.02 | 0.01 | 66 | 1019.3 |
| 20260831203012 | 74 | 194 | 3.0 | 8.0 | 0.00 | 0.02 | 0.01 | 63 | 1019.1 |
| 20260831201515 | 73 | 182 | 3.0 | 8.0 | 0.00 | 0.02 | 0.01 | 71 | 1019.1 |
| 20260831200010 | 73 | 172 | 4.0 | 7.0 | 0.00 | 0.02 | 0.01 | 72 | 1019.3 |
| 20260831194514 | 73 | 236 | 3.0 | 8.0 | 0.00 | 0.02 | 0.01 | 73 | 1019.3 |
| 20260831193110 | 73 | 181 | 4.0 | 8.0 | 0.00 | 0.02 | 0.01 | 73 | 1019.5 |